When you browse on this site, cookies collect data to enhance your experience and personalize the content and advertising you see.
Visit our Privacy Policy to learn more. By continuing to use the site, you agree to this use of cookies and data.
EN

Hourly Weather Shumen

Today, 8 July, Wednesday

Time Temperature Precipitation Wind Pressure Humidity
00:00 +17°C° 0 mm 4 mps 728 mmHg 78%
01:00 +17°C° 0 mm 4 mps 728 mmHg 78%
02:00 +15°C° 0 mm 4 mps 728 mmHg 77%
03:00 +14°C° 0 mm 4 mps 729 mmHg 79%
04:00 +14°C° 0 mm 3 mps 729 mmHg 80%
05:00 +13°C° 0 mm 3 mps 729 mmHg 81%
06:00 +14°C° 0 mm 4 mps 730 mmHg 78%
07:00 +15°C° 0 mm 4 mps 730 mmHg 74%
08:00 +16°C° 0 mm 5 mps 731 mmHg 70%
09:00 +17°C° 0 mm 5 mps 731 mmHg 66%
10:00 +19°C° 0 mm 5 mps 731 mmHg 62%
11:00 +21°C° 0 mm 5 mps 732 mmHg 58%
12:00 +21°C° 0 mm 4 mps 732 mmHg 56%
13:00 +22°C° 0 mm 4 mps 732 mmHg 54%
14:00 +23°C° 0 mm 4 mps 732 mmHg 52%
15:00 +24°C° 0 mm 3 mps 732 mmHg 53%
16:00 +22°C° 0 mm 3 mps 731 mmHg 55%
17:00 +23°C° 0 mm 2 mps 731 mmHg 56%
18:00 +21°C° 0 mm 2 mps 731 mmHg 60%
19:00 +20°C° 0 mm 1 mps 731 mmHg 64%
20:00 +19°C° 0 mm 1 mps 731 mmHg 69%
21:00 +16°C° 0 mm 0 mps 732 mmHg 72%
22:00 +15°C° 0 mm 0 mps 732 mmHg 74%
23:00 +14°C° 0 mm 0 mps 732 mmHg 77%

Tomorrow, 9 July, Thursday

Time Temperature Precipitation Wind Pressure Humidity
00:00 +14°C° 0 mm 0 mps 732 mmHg 78%
01:00 +14°C° 0 mm 0 mps 732 mmHg 79%
02:00 +14°C° 0 mm 0 mps 732 mmHg 81%
03:00 +13°C° 0 mm 0 mps 732 mmHg 81%
04:00 +13°C° 0 mm 0 mps 732 mmHg 81%
05:00 +13°C° 0 mm 0 mps 732 mmHg 82%
06:00 +15°C° 0 mm 0 mps 732 mmHg 75%
07:00 +17°C° 0 mm 0 mps 733 mmHg 68%
08:00 +20°C° 0 mm 0 mps 733 mmHg 62%
09:00 +21°C° 0 mm 0 mps 733 mmHg 56%
10:00 +24°C° 0 mm 1 mps 733 mmHg 50%
11:00 +26°C° 0 mm 1 mps 734 mmHg 44%
12:00 +26°C° 0 mm 1 mps 733 mmHg 42%
13:00 +27°C° 0 mm 1 mps 733 mmHg 41%
14:00 +28°C° 0 mm 1 mps 733 mmHg 39%
15:00 +28°C° 0 mm 1 mps 733 mmHg 40%
16:00 +27°C° 0 mm 1 mps 732 mmHg 41%
17:00 +27°C° 0 mm 1 mps 732 mmHg 42%
18:00 +25°C° 0 mm 1 mps 732 mmHg 51%
19:00 +23°C° 0 mm 1 mps 732 mmHg 60%
20:00 +20°C° 0 mm 2 mps 732 mmHg 69%
21:00 +20°C° 0 mm 1 mps 732 mmHg 72%
22:00 +19°C° 0 mm 1 mps 732 mmHg 75%
23:00 +18°C° 0 mm 1 mps 732 mmHg 79%

Day after tomorrow, 10 July, Friday

Time Temperature Precipitation Wind Pressure Humidity
00:00 +18°C° 0 mm 1 mps 732 mmHg 79%
01:00 +18°C° 0 mm 1 mps 732 mmHg 80%
02:00 +16°C° 0 mm 1 mps 732 mmHg 81%
03:00 +15°C° 0 mm 0 mps 732 mmHg 81%
04:00 +15°C° 0 mm 0 mps 732 mmHg 80%
05:00 +15°C° 0 mm 0 mps 732 mmHg 80%
06:00 +17°C° 0 mm 0 mps 732 mmHg 74%
07:00 +21°C° 0 mm 1 mps 733 mmHg 69%
08:00 +23°C° 0 mm 1 mps 733 mmHg 63%
09:00 +24°C° 0 mm 2 mps 733 mmHg 59%
10:00 +26°C° 0 mm 3 mps 733 mmHg 56%
11:00 +27°C° 0 mm 3 mps 733 mmHg 52%
12:00 +27°C° 0 mm 4 mps 733 mmHg 50%
13:00 +28°C° 0 mm 4 mps 733 mmHg 48%
14:00 +28°C° 0 mm 4 mps 733 mmHg 46%
15:00 +28°C° 0 mm 4 mps 733 mmHg 48%
16:00 +27°C° 0 mm 4 mps 732 mmHg 50%
17:00 +27°C° 0 mm 4 mps 732 mmHg 52%
18:00 +25°C° 0 mm 3 mps 732 mmHg 59%
19:00 +22°C° 0 mm 3 mps 732 mmHg 67%
20:00 +20°C° 0 mm 2 mps 732 mmHg 75%
21:00 +19°C° 0 mm 2 mps 732 mmHg 79%
22:00 +18°C° 0 mm 2 mps 732 mmHg 82%
23:00 +18°C° 0 mm 1 mps 732 mmHg 86%

11 July, Saturday

Time Temperature Precipitation Wind Pressure Humidity
00:00 +18°C° 0 mm 1 mps 732 mmHg 87%
01:00 +16°C° 0 mm 1 mps 732 mmHg 88%
02:00 +16°C° 0 mm 1 mps 731 mmHg 89%
03:00 +16°C° 0 mm 1 mps 731 mmHg 90%
04:00 +16°C° 0 mm 1 mps 731 mmHg 91%
05:00 +16°C° 0 mm 1 mps 731 mmHg 91%
06:00 +19°C° 0 mm 1 mps 731 mmHg 85%
07:00 +20°C° 0 mm 2 mps 732 mmHg 79%
08:00 +23°C° 0 mm 2 mps 732 mmHg 73%
09:00 +25°C° 0 mm 3 mps 732 mmHg 68%
10:00 +26°C° 0 mm 4 mps 732 mmHg 62%
11:00 +27°C° 0 mm 4 mps 732 mmHg 57%
12:00 +28°C° 0 mm 4 mps 732 mmHg 55%
13:00 +28°C° 0 mm 4 mps 731 mmHg 54%
14:00 +28°C° 0 mm 5 mps 731 mmHg 52%
15:00 +28°C° 0 mm 4 mps 731 mmHg 53%
16:00 +28°C° 0 mm 4 mps 730 mmHg 53%
17:00 +27°C° 0 mm 4 mps 730 mmHg 54%
18:00 +25°C° 0 mm 3 mps 730 mmHg 62%
19:00 +22°C° 0 mm 3 mps 730 mmHg 70%
20:00 +20°C° 0 mm 2 mps 730 mmHg 78%
21:00 +20°C° 0 mm 2 mps 730 mmHg 82%
22:00 +20°C° 0 mm 1 mps 730 mmHg 86%
23:00 +19°C° 0 mm 1 mps 730 mmHg 90%

12 July, Sunday

Time Temperature Precipitation Wind Pressure Humidity
00:00 +19°C° 0 mm 1 mps 730 mmHg 91%
01:00 +16°C° 0 mm 0 mps 730 mmHg 91%
02:00 +16°C° 0 mm 0 mps 729 mmHg 91%
03:00 +16°C° 0 mm 0 mps 729 mmHg 91%
04:00 +16°C° 0 mm 0 mps 729 mmHg 91%
05:00 +15°C° 0 mm 0 mps 729 mmHg 91%
06:00 +19°C° 0 mm 1 mps 729 mmHg 83%
07:00 +21°C° 0 mm 1 mps 730 mmHg 75%
08:00 +24°C° 0 mm 2 mps 730 mmHg 67%
09:00 +25°C° 0 mm 2 mps 730 mmHg 62%
10:00 +27°C° 0 mm 3 mps 731 mmHg 57%
11:00 +28°C° 0 mm 3 mps 731 mmHg 51%
12:00 +28°C° 0.1 mm 3 mps 731 mmHg 52%
13:00 +28°C° 0.1 mm 3 mps 730 mmHg 54%
14:00 +28°C° 0.1 mm 3 mps 730 mmHg 55%
15:00 +28°C° 0.3 mm 3 mps 730 mmHg 57%
16:00 +28°C° 0.3 mm 3 mps 730 mmHg 59%
17:00 +28°C° 0.3 mm 3 mps 730 mmHg 61%
18:00 +26°C° 0.6 mm 3 mps 730 mmHg 68%
19:00 +24°C° 0.6 mm 3 mps 730 mmHg 75%
20:00 +21°C° 0.6 mm 2 mps 730 mmHg 82%
21:00 +20°C° 0.1 mm 3 mps 730 mmHg 84%
22:00 +19°C° 0.1 mm 3 mps 731 mmHg 87%
23:00 +18°C° 0.1 mm 3 mps 731 mmHg 89%

13 July, Monday

Time Temperature Precipitation Wind Pressure Humidity
00:00 +17°C° 0 mm 3 mps 731 mmHg 90%
01:00 +16°C° 0 mm 3 mps 731 mmHg 90%
02:00 +14°C° 0 mm 3 mps 731 mmHg 91%
03:00 +14°C° 0 mm 3 mps 731 mmHg 91%
04:00 +14°C° 0 mm 3 mps 731 mmHg 91%
05:00 +13°C° 0 mm 3 mps 732 mmHg 90%
06:00 +14°C° 0 mm 4 mps 732 mmHg 87%
07:00 +14°C° 0 mm 4 mps 732 mmHg 84%
08:00 +14°C° 0 mm 5 mps 733 mmHg 81%
09:00 +15°C° 0 mm 5 mps 733 mmHg 75%
10:00 +17°C° 0 mm 5 mps 733 mmHg 69%
11:00 +19°C° 0 mm 6 mps 733 mmHg 63%
12:00 +20°C° 0 mm 6 mps 733 mmHg 59%
13:00 +21°C° 0 mm 6 mps 733 mmHg 56%
14:00 +22°C° 0 mm 5 mps 733 mmHg 52%
15:00 +22°C° 0 mm 5 mps 733 mmHg 52%
16:00 +22°C° 0 mm 5 mps 733 mmHg 52%
17:00 +22°C° 0 mm 5 mps 732 mmHg 52%
18:00 +21°C° 0 mm 4 mps 732 mmHg 59%
19:00 +19°C° 0 mm 3 mps 732 mmHg 65%
20:00 +17°C° 0 mm 2 mps 732 mmHg 72%
21:00 +16°C° 0 mm 2 mps 732 mmHg 75%
22:00 +16°C° 0 mm 2 mps 732 mmHg 77%
23:00 +15°C° 0 mm 1 mps 733 mmHg 80%
Show more